User: anonymous   Login
Location: Unspecified
(0.0000°N, 0.0000°E)
Time: 01:39:24
(UTC+00:00)
Language:

UHF F/O F4 - Orbit

View from above orbital plane
View from above orbital plane
View from above satellite
View from above satellite

Ground track
Ground track

The orbit data is extracted from the following two-line orbital elements,

1 23467U 95003A   23080.67042569 -.00000035  00000-0  00000-0 0  9990
2 23467   9.7941  16.9032 0002665  32.2336 183.3230  1.00272900103086
Epoch (UTC): 21 March 2023 16:05:24
Eccentricity: 0.0002665
inclination: 9.7941°
perigee height: 35774 km
apogee height: 35797 km
right ascension of ascending node: 16.9032°
argument of perigee: 32.2336°
revolutions per day: 1.00272900
mean anomaly at epoch: 183.3230°
orbit number at epoch: 10308

The dashed part of the orbit path shows where the satellite is in the earth's shadow,  

DLR